Weather History for St. Francis, KS

Change the Weather History Date:

Monday, January 21, 2013

  Actual Average Record
Temperature  
Mean Temperature 28 °F -  
Max Temperature 41 °F 42 °F 61 °F (2014)
Min Temperature 14 °F 15 °F 12 °F (2014)
Degree Days  
Heating Degree Days 38    
Moisture  
Dew Point 17 °F    
Average Humidity 73    
Maximum Humidity 93    
Minimum Humidity 41    
Precipitation  
Precipitation 0.00 in - - ()
Sea Level Pressure  
Sea Level Pressure 30.18 in    
Wind  
Wind Speed 7 mph (South)    
Max Wind Speed 14 mph    
Max Gust Speed -    
Visibility 10 miles    
Events      
Averages and records for this station are not official NWS values.
T = Trace of Precipitation, MM = Missing Value Source: NWS Daily Summary

Daily Weather History Graph

Daily Weather History Graph

Search for Another Location

Airport:

Trip Planner

Search our weather history database for the weather conditions in past years. The results will help you decide how hot, cold, wet, or windy it might be!

Date:

Astronomy

Jan. 21, 2013 Rise Set
Actual Time 8:03 AM CST 5:54 PM CST
Civil Twilight 7:34 AM CST 6:23 PM CST
Nautical Twilight 7:01 AM CST 6:56 PM CST
Astronomical Twilight 6:29 AM CST 7:28 PM CST
Moon 1:35 PM CST (1/21) 3:33 AM CST (1/21)
Length of Visible Light 10h 49m
Length of Day
9h 50m
Waxing Gibbous, 75% of the Moon is Illuminated
Jan 21
Waxing Gibbous
Jan 26
Full
Feb 3
Last Quarter
Feb 10
New
Feb 17
First Quarter

Hourly Weather History & Observations

Time (CST) Temp. Windchill Dew Point Humidity Pressure Visibility Wind Dir Wind Speed Gust Speed Precip Events Conditions
12:15 AM 19.2 °F 10.2 °F 15.4 °F 85% 30.31 in 10.0 mi South 6.9 mph - N/A   Clear
12:35 AM 17.6 °F 8.2 °F 14.4 °F 87% 30.30 in 10.0 mi WSW 6.9 mph - N/A   Clear
12:55 AM 17.4 °F 10.4 °F 14.0 °F 86% 30.31 in 10.0 mi WSW 4.6 mph - N/A   Clear
1:15 AM 16.9 °F 7.4 °F 13.6 °F 87% 30.30 in 10.0 mi SW 6.9 mph - N/A   Clear
1:35 AM 17.6 °F 8.2 °F 14.5 °F 88% 30.30 in 10.0 mi SW 6.9 mph - N/A   Clear
1:55 AM 17.1 °F 7.6 °F 13.8 °F 87% 30.29 in 10.0 mi SW 6.9 mph - N/A   Clear
2:15 AM 15.6 °F 5.9 °F 12.7 °F 88% 30.29 in 10.0 mi SW 6.9 mph - N/A   Clear
2:35 AM 15.8 °F 6.1 °F 12.6 °F 87% 30.29 in 10.0 mi SW 6.9 mph - N/A   Clear
2:55 AM 15.8 °F 7.2 °F 12.7 °F 88% 30.29 in 10.0 mi SW 5.8 mph - N/A   Clear
3:15 AM 14.9 °F 4.0 °F 11.8 °F 88% 30.29 in 10.0 mi SW 8.1 mph - N/A   Clear
3:35 AM 16.5 °F 5.1 °F 13.5 °F 88% 30.29 in 10.0 mi SW 9.2 mph - N/A   Clear
3:55 AM 16.9 °F 6.4 °F 13.3 °F 86% 30.28 in 10.0 mi SW 8.1 mph - N/A   Clear
4:15 AM 16.9 °F 4.8 °F 13.1 °F 85% 30.26 in 10.0 mi SW 10.4 mph - N/A   Clear
4:55 AM 17.4 °F 7.1 °F 13.5 °F 84% 30.26 in 10.0 mi SW 8.1 mph - N/A   Clear
5:15 AM 16.7 °F 6.2 °F 12.9 °F 85% 30.25 in 10.0 mi SW 8.1 mph - N/A   Clear
5:35 AM 16.5 °F 6.0 °F 12.7 °F 85% 30.25 in 10.0 mi SW 8.1 mph - N/A   Clear
5:55 AM 16.7 °F 6.2 °F 12.9 °F 85% 30.24 in 10.0 mi WSW 8.1 mph - N/A   Clear
6:15 AM 15.4 °F 4.6 °F 11.8 °F 86% 30.22 in 10.0 mi SW 8.1 mph - N/A   Clear
6:35 AM 15.1 °F 4.2 °F 11.7 °F 86% 30.23 in 10.0 mi SW 8.1 mph - N/A   Clear
6:55 AM 15.8 °F 5.1 °F 12.2 °F 86% 30.22 in 10.0 mi SW 8.1 mph - N/A   Clear
7:15 AM 16.5 °F 6.9 °F 12.7 °F 85% 30.20 in 10.0 mi SW 6.9 mph - N/A   Clear
7:35 AM 16.3 °F 4.9 °F 12.9 °F 86% 30.20 in 10.0 mi SW 9.2 mph - N/A   Clear
7:55 AM 15.6 °F 7.0 °F 12.2 °F 86% 30.20 in 10.0 mi WSW 5.8 mph - N/A   Clear
8:15 AM 16.5 °F 5.1 °F 13.3 °F 87% 30.19 in 10.0 mi WSW 9.2 mph - N/A   Clear
8:35 AM 17.8 °F 5.2 °F 13.8 °F 84% 30.19 in 10.0 mi WSW 11.5 mph - N/A   Clear
8:55 AM 20.3 °F 9.0 °F 16.0 °F 83% 30.19 in 10.0 mi SW 10.4 mph - N/A   Clear
9:15 AM 22.5 °F 11.7 °F 18.1 °F 83% 30.18 in 10.0 mi SW 10.4 mph - N/A   Clear
9:35 AM 25.2 °F 15.1 °F 19.8 °F 80% 30.18 in 10.0 mi WSW 10.4 mph - N/A   Clear
9:55 AM 26.2 °F 14.7 °F 20.3 °F 78% 30.17 in 10.0 mi WSW 13.8 mph - N/A   Clear
10:15 AM 28.8 °F 19.0 °F 21.6 °F 74% 30.18 in 10.0 mi West 11.5 mph - N/A   Clear
10:35 AM 31.1 °F 25.4 °F 22.5 °F 70% 30.21 in 10.0 mi North 5.8 mph - N/A   Clear
10:55 AM 30.9 °F 21.7 °F 22.1 °F 70% 30.21 in 10.0 mi NNE 11.5 mph - N/A   Clear
11:15 AM 31.1 °F 23.7 °F 20.7 °F 65% 30.21 in 10.0 mi NNE 8.1 mph - N/A   Clear
11:35 AM 32.0 °F 25.6 °F 21.0 °F 64% 30.21 in 10.0 mi NNE 6.9 mph - N/A   Clear
11:55 AM 33.6 °F 28.4 °F 20.7 °F 59% 30.20 in 10.0 mi North 5.8 mph - N/A   Clear
12:15 PM 35.6 °F 32.8 °F 20.3 °F 54% 30.18 in 10.0 mi NNE 3.5 mph - N/A   Clear
12:35 PM 36.0 °F 32.1 °F 20.3 °F 53% 30.17 in 10.0 mi NE 4.6 mph - N/A   Clear
12:55 PM 36.9 °F 32.2 °F 20.1 °F 51% 30.17 in 10.0 mi North 5.8 mph - N/A   Clear
1:15 PM 38.5 °F 32.7 °F 20.3 °F 48% 30.15 in 10.0 mi NNE 8.1 mph - N/A   Clear
1:35 PM 39.6 °F 36.3 °F 19.9 °F 45% 30.14 in 10.0 mi NE 4.6 mph - N/A   Clear
1:55 PM 40.6 °F 36.7 °F 19.9 °F 44% 30.14 in 10.0 mi NNE 5.8 mph - N/A   Clear
2:15 PM 41.0 °F 35.8 °F 20.1 °F 43% 30.13 in 10.0 mi NE 8.1 mph - N/A   Clear
2:35 PM 41.4 °F 36.2 °F 20.1 °F 43% 30.12 in 10.0 mi NE 8.1 mph - N/A   Clear
2:55 PM 41.5 °F 35.9 °F 20.5 °F 43% 30.11 in 10.0 mi ENE 9.2 mph - N/A   Clear
3:15 PM 41.9 °F 36.3 °F 20.1 °F 42% 30.11 in 10.0 mi NE 9.2 mph - N/A   Clear
3:35 PM 41.9 °F 37.5 °F 19.9 °F 42% 30.11 in 10.0 mi NNE 6.9 mph - N/A   Clear
3:55 PM 41.9 °F 37.5 °F 19.9 °F 42% 30.11 in 10.0 mi ENE 6.9 mph - N/A   Clear
4:15 PM 41.7 °F 36.7 °F 19.4 °F 41% 30.12 in 10.0 mi ENE 8.1 mph - N/A   Clear
4:35 PM 40.8 °F 36.2 °F 19.9 °F 43% 30.10 in 10.0 mi ENE 6.9 mph - N/A   Clear
4:55 PM 40.1 °F 34.7 °F 20.3 °F 45% 30.10 in 10.0 mi ENE 8.1 mph - N/A   Clear
5:15 PM 38.7 °F 32.9 °F 20.3 °F 48% 30.09 in 10.0 mi ENE 8.1 mph - N/A   Clear
5:35 PM 36.5 °F 31.8 °F 20.3 °F 52% 30.10 in 10.0 mi ENE 5.8 mph - N/A   Clear
5:55 PM 32.7 °F 26.4 °F 20.3 °F 60% 30.10 in 10.0 mi East 6.9 mph - N/A   Clear
6:15 PM 30.9 °F 25.2 °F 20.1 °F 64% 30.10 in 10.0 mi ENE 5.8 mph - N/A   Clear
6:55 PM 28.8 °F 20.9 °F 20.1 °F 70% 30.10 in 10.0 mi East 8.1 mph - N/A   Clear
7:15 PM 27.1 °F 20.7 °F 19.8 °F 74% 30.10 in 10.0 mi ESE 5.8 mph - N/A   Clear
7:35 PM 25.9 °F 18.2 °F 19.8 °F 78% 30.10 in 10.0 mi ESE 6.9 mph - N/A   Clear
7:55 PM 25.0 °F 16.3 °F 19.8 °F 81% 30.10 in 10.0 mi ESE 8.1 mph - N/A   Clear
8:15 PM 25.5 °F 17.8 °F 19.9 °F 79% 30.11 in 10.0 mi ESE 6.9 mph - N/A   Clear
8:35 PM 24.3 °F 17.3 °F 19.2 °F 81% 30.12 in 10.0 mi ESE 5.8 mph - N/A   Clear
8:55 PM 23.7 °F 17.8 °F 19.4 °F 84% 30.12 in 10.0 mi ESE 4.6 mph - N/A   Clear
9:15 PM 23.5 °F 16.4 °F 19.0 °F 83% 30.12 in 10.0 mi SE 5.8 mph - N/A   Clear
9:35 PM 22.1 °F 14.7 °F 18.5 °F 86% 30.10 in 10.0 mi SE 5.8 mph - N/A   Clear
9:55 PM 22.6 °F 16.5 °F 19.4 °F 87% 30.10 in 10.0 mi South 4.6 mph - N/A   Clear
10:15 PM 21.2 °F 14.9 °F 18.3 °F 89% 30.10 in 10.0 mi SW 4.6 mph - N/A   Clear
10:35 PM 22.1 °F 15.9 °F 19.8 °F 91% 30.10 in 10.0 mi South 4.6 mph - N/A   Clear
10:55 PM 21.4 °F 16.6 °F 18.9 °F 90% 30.10 in 10.0 mi South 3.5 mph - N/A   Clear
11:15 PM 20.7 °F 15.8 °F 18.7 °F 92% 30.10 in 10.0 mi SE 3.5 mph - N/A   Clear
11:35 PM 20.3 °F - 18.5 °F 93% 30.10 in 10.0 mi Calm Calm - N/A   Clear
11:55 PM 20.3 °F - 18.3 °F 92% 30.10 in 7.0 mi Calm Calm - N/A   Clear